Weather History for Palmer, AK

Change the Weather History Date:

Friday, May 10, 2013

  Actual Average Record
Temperature  
Mean Temperature 47 °F -  
Max Temperature 62 °F 54 °F 71 °F (1954)
Min Temperature 33 °F 36 °F 16 °F (1964)
Degree Days  
Heating Degree Days 18    
Moisture  
Dew Point 29 °F    
Average Humidity 50    
Maximum Humidity 82    
Minimum Humidity 25    
Precipitation  
Precipitation 0.00 in - - ()
Sea Level Pressure  
Sea Level Pressure 30.08 in    
Wind  
Wind Speed 4 mph (SE)    
Max Wind Speed 18 mph    
Max Gust Speed 28 mph    
Visibility 10 miles    
Events      
Averages and records for this station are not official NWS values.
T = Trace of Precipitation, MM = Missing Value Source: NWS Daily Summary

Daily Weather History Graph

Daily Weather History Graph

Search for Another Location

Airport:

Trip Planner

Search our weather history database for the weather conditions in past years. The results will help you decide how hot, cold, wet, or windy it might be!

Date:

Astronomy

May. 10, 2013 Rise Set
Actual Time 5:18 AM AKDT 10:29 PM AKDT
Civil Twilight 4:11 AM AKDT 11:37 PM AKDT
Nautical Twilight 2:25 AM AKDT 1:20 AM AKDT
Astronomical Twilight Sun does not rise Sun does not rise
Moon 5:47 AM AKDT (5/10) 11:35 PM AKDT (5/10)
Length of Visible Light 19h 25m
Length of Day
17h 10m
New Moon, 1% of the Moon is Illuminated
May 10
New Moon
May 17
First Quarter
May 24
Full
May 31
Last Quarter
Jun 8
New

Hourly Weather History & Observations

Time (AKDT) Temp. Windchill Dew Point Humidity Pressure Visibility Wind Dir Wind Speed Gust Speed Precip Events Conditions
12:53 AM 44.1 °F - 30.9 °F 60% 30.23 in 10.0 mi Calm Calm - N/A   Scattered Clouds
1:53 AM 37.0 °F - 30.0 °F 76% 30.23 in 10.0 mi Calm Calm - N/A   Clear
2:53 AM 36.0 °F 33.3 °F 30.0 °F 79% 30.22 in 10.0 mi NNE 3.5 mph - N/A   Clear
3:53 AM 35.1 °F - 27.0 °F 72% 30.20 in 10.0 mi Calm Calm - N/A   Clear
4:53 AM 34.0 °F 31.0 °F 28.0 °F 79% 30.19 in 10.0 mi NNW 3.5 mph - N/A   Clear
5:53 AM 33.1 °F - 28.0 °F 82% 30.17 in 10.0 mi Calm Calm - N/A   Clear
6:53 AM 37.0 °F 33.3 °F 28.0 °F 70% 30.16 in 10.0 mi NNW 4.6 mph - N/A   Clear
7:53 AM 44.1 °F - 28.9 °F 55% 30.15 in 10.0 mi Calm Calm - N/A   Clear
8:53 AM 46.0 °F 44.8 °F 30.9 °F 56% 30.14 in 10.0 mi SE 3.5 mph - N/A   Clear
9:53 AM 48.9 °F - 32.0 °F 52% 30.13 in 10.0 mi SE 3.5 mph - N/A   Clear
10:53 AM 52.0 °F - 30.9 °F 45% 30.12 in 10.0 mi Calm Calm - N/A   Clear
11:53 AM 55.9 °F - 32.0 °F 40% 30.10 in 10.0 mi Calm Calm - N/A   Clear
12:53 PM 57.9 °F - 30.0 °F 35% 30.08 in 10.0 mi SSE 3.5 mph - N/A   Partly Cloudy
1:53 PM 60.1 °F - 28.9 °F 31% 30.06 in 10.0 mi East 3.5 mph - N/A   Clear
2:53 PM 61.0 °F - 30.0 °F 31% 30.04 in 10.0 mi SSE 5.8 mph - N/A   Overcast
3:53 PM 60.1 °F - 28.0 °F 30% 30.03 in 10.0 mi SE 9.2 mph - N/A   Overcast
4:53 PM 61.0 °F - 27.0 °F 27% 30.01 in 10.0 mi SSE 10.4 mph - N/A   Overcast
5:53 PM 61.0 °F - 25.0 °F 25% 29.99 in 10.0 mi SE 9.2 mph - N/A   Partly Cloudy
6:53 PM 60.1 °F - 26.1 °F 27% 29.96 in 10.0 mi SE 9.2 mph - N/A   Clear
7:53 PM 57.9 °F - 28.9 °F 33% 29.96 in 10.0 mi SE 13.8 mph - N/A   Scattered Clouds
8:53 PM 54.0 °F - 30.9 °F 41% 29.95 in 10.0 mi SE 16.1 mph 27.6 mph N/A   Scattered Clouds
9:53 PM 52.0 °F - 30.0 °F 43% 29.96 in 10.0 mi SE 18.4 mph - N/A   Partly Cloudy
10:53 PM 48.9 °F - 30.9 °F 50% 29.95 in 10.0 mi SE 12.7 mph - N/A   Scattered Clouds
11:53 PM 48.0 °F - 32.0 °F 54% 29.95 in 10.0 mi SE 12.7 mph - N/A   Clear